Vorticity
nan nan nan nan nan nan nan nan nan nan nan nan nan nan nan nan nan nan nan nan nan nan nan nan nan nan nan nan nan nan nan nan nan nan nan nan nan nan nan nan nan nan nan nan nan nan nan nan nan
nan 4 5 7 8 5 6 8 6 5 -4 5 11 7 8 3 1 7 13 12 8 7 8 7 6 5 4 5 5 5 6 5 6 6 5 5 5 5 5 4 4 4 4 4 3 3 4 4 nan
nan 4 9 4 5 4 5 10 8 1 6 13 7 7 6 8 7 6 15 14 8 7 6 8 7 5 5 5 5 5 5 5 5 5 5 5 5 5 5 5 5 4 4 3 4 3 3 3 nan
nan 6 6 9 3 4 2 2 3 0 13 10 6 7 6 7 8 15 13 7 7 7 6 8 6 5 5 5 5 5 5 5 5 5 5 5 4 4 5 5 5 4 4 4 3 3 3 3 nan
nan 8 6 5 5 5 3 -0 1 4 4 6 9 6 7 8 11 15 8 5 5 7 7 7 7 6 5 6 6 5 5 5 5 5 5 5 5 5 5 5 5 4 4 4 4 3 3 4 nan
nan 7 11 9 7 1 3 6 3 6 7 12 9 6 8 9 11 9 8 6 7 8 7 8 7 5 6 6 6 7 6 6 5 5 5 5 5 5 5 5 5 5 4 4 4 4 4 5 nan
nan 6 4 8 8 7 10 10 8 6 12 11 7 6 9 9 9 10 8 6 7 7 7 7 8 6 6 7 7 6 6 6 5 5 6 5 6 5 5 5 5 5 4 5 5 4 4 5 nan
nan 6 7 4 6 8 12 8 12 12 4 6 8 8 6 13 12 8 8 6 5 7 7 7 7 8 7 7 8 7 6 5 6 6 5 6 7 6 5 4 6 6 5 4 5 5 5 5 nan
nan 7 7 9 5 5 2 7 4 9 8 7 7 7 8 14 11 6 5 5 4 5 7 8 7 7 8 7 9 9 8 7 6 6 6 5 6 9 7 6 6 5 5 5 5 5 5 6 nan
nan 4 5 7 4 3 -1 -1 2 4 5 4 7 3 1 7 6 4 6 8 5 4 6 6 8 8 5 7 9 9 9 9 9 8 7 6 7 8 8 9 8 7 5 6 7 7 7 6 nan
nan 5 4 4 7 4 3 2 3 2 1 3 1 -3 -3 1 5 4 7 8 7 6 8 9 7 9 7 6 6 7 9 9 12 10 7 7 8 7 7 7 8 10 7 7 9 7 7 6 nan
nan 8 6 2 6 7 9 5 6 4 -1 -0 0 -1 2 3 2 3 7 8 8 10 8 10 10 7 6 6 7 6 6 7 8 11 7 5 7 8 6 7 7 6 8 8 6 7 9 7 nan
nan 3 6 7 4 1 5 3 5 8 10 3 6 5 6 8 6 8 6 4 8 8 10 12 11 7 8 5 5 8 8 7 7 9 9 5 6 7 7 7 7 6 7 7 7 6 8 8 nan
nan 9 6 9 5 6 8 4 3 7 5 4 7 7 8 8 8 6 6 8 8 7 9 13 10 9 8 7 6 5 8 8 8 8 10 8 5 8 8 6 6 6 7 6 7 8 7 8 nan
nan 9 10 10 10 5 8 10 7 5 3 2 2 5 6 7 9 8 7 9 8 7 9 9 10 10 8 7 7 7 8 9 8 9 11 10 7 6 6 6 7 7 7 7 7 7 7 8 nan
nan 11 8 6 5 13 9 -0 9 9 11 11 9 8 10 12 10 10 9 8 8 9 8 6 8 8 10 8 8 8 9 9 9 10 12 12 9 7 6 6 8 8 7 7 7 8 7 8 nan
nan 9 9 10 6 6 4 2 8 5 10 12 10 10 8 8 10 9 8 8 9 8 6 8 10 11 10 10 10 10 10 8 10 10 12 12 9 7 6 8 9 9 8 7 7 7 8 8 nan
nan 8 6 11 16 10 0 6 6 4 3 6 4 5 5 6 5 7 10 7 7 7 9 9 10 14 12 11 11 10 10 10 10 10 12 10 8 9 7 9 9 8 8 8 8 9 7 7 nan
nan 12 18 11 13 17 7 9 9 8 5 5 5 5 6 6 7 8 9 9 7 7 9 8 9 12 11 9 10 11 11 10 10 11 11 8 9 10 7 8 11 8 7 9 9 9 9 8 nan
nan 2 6 13 10 10 12 9 7 8 10 8 8 8 6 8 9 8 7 8 9 7 7 9 9 11 10 7 9 13 14 11 11 11 11 10 11 9 9 8 9 9 9 10 9 6 7 9 nan
nan 14 3 -2 6 8 14 14 11 10 9 9 9 8 9 9 8 8 9 7 7 9 9 7 10 14 14 10 6 8 8 11 11 10 11 12 12 10 9 8 9 10 8 9 9 8 6 7 nan
nan 14 16 10 4 8 3 14 16 15 11 9 9 9 9 8 10 7 5 8 7 6 7 9 14 15 15 10 7 5 4 7 10 11 11 13 12 10 9 10 9 7 7 9 8 9 9 8 nan
nan 7 6 7 6 8 3 6 8 10 6 7 10 10 12 11 11 11 8 8 9 9 8 12 15 14 13 10 7 7 7 10 13 13 11 8 11 10 10 9 8 7 8 9 9 9 8 7 nan
nan 17 8 1 8 9 14 5 4 17 18 17 13 8 10 16 16 14 13 12 11 11 14 15 13 13 12 11 10 10 10 9 10 10 8 8 8 10 10 9 8 8 10 9 9 9 9 7 nan
nan 12 12 12 11 10 15 9 4 10 17 6 9 10 11 15 15 13 14 15 14 13 13 13 12 12 11 10 11 12 10 9 9 7 7 8 7 10 10 9 8 9 9 9 10 9 9 9 nan
nan 3 4 12 10 14 11 2 9 -1 -2 1 7 10 8 9 12 13 14 17 17 16 13 13 12 11 10 10 10 11 8 7 9 9 8 8 9 11 10 8 8 9 9 9 8 8 9 9 nan
nan 9 3 6 15 18 9 2 7 12 15 15 12 8 5 8 10 14 19 21 19 16 14 14 11 10 11 10 8 8 9 10 10 9 9 10 11 11 10 9 9 9 9 8 7 8 10 9 nan
nan 9 11 5 5 12 10 14 12 18 14 6 9 8 8 6 9 19 21 18 17 15 14 13 11 10 9 9 8 9 10 10 10 9 9 9 9 10 10 9 9 9 8 9 8 8 10 9 nan
nan 8 6 8 3 4 8 13 17 11 3 0 0 4 10 9 12 19 20 17 15 13 12 11 10 9 8 8 10 10 10 9 8 9 9 9 10 10 10 10 9 9 8 8 8 8 9 8 nan
nan nan nan nan nan nan nan nan nan nan nan nan nan nan nan nan nan nan nan nan nan nan nan nan nan nan nan nan nan nan nan nan nan nan nan nan nan nan nan nan nan nan nan nan nan nan nan nan nan
CAPE
0 0 0 0 0 0 0 0 0 0 0 0 0 0 0 0 0 0 0 0 58 97 461 963 1284 971 750 456 336 228 156 106 75 45 46 37 28 0 0 0 0 0 0 0 0 0 0 0 0
0 0 0 0 0 0 0 0 0 0 0 0 0 0 0 0 0 0 0 9 54 228 633 281 1403 1067 946 685 510 331 201 123 84 51 34 26 42 14 0 0 0 0 0 0 0 0 0 0 0
0 0 0 0 0 0 0 0 0 0 0 0 0 0 0 0 0 0 3 9 62 302 361 454 1525 1198 1140 854 656 463 315 210 173 100 63 20 36 37 28 12 0 0 0 0 0 0 0 0 0
0 0 0 0 0 0 0 0 0 0 0 0 0 0 0 0 0 0 62 33 109 254 233 402 1489 1368 1258 1072 818 617 440 341 297 186 157 134 84 100 50 23 3 0 0 0 9 48 61 70 81
0 0 0 0 0 0 0 0 0 0 0 0 0 0 0 0 0 93 174 143 114 223 305 208 1418 1428 1388 1315 1114 820 522 445 409 318 266 213 180 176 140 86 18 28 46 48 46 124 201 263 400
0 0 0 0 0 0 0 0 0 0 0 0 0 0 0 0 47 186 166 289 179 278 373 217 1150 1362 1351 1305 1271 980 617 535 510 432 369 313 302 263 209 185 118 87 123 162 220 305 353 502 397
0 0 0 0 0 0 0 0 0 0 0 0 0 0 0 0 23 242 206 235 259 252 369 313 467 979 1246 1370 1238 1062 795 674 598 509 415 412 471 401 330 294 274 208 328 358 461 513 632 611 492
0 0 0 0 0 0 0 0 0 0 0 0 0 0 0 0 128 337 218 176 136 237 261 220 434 579 427 519 1407 1250 998 860 713 676 614 587 578 547 444 341 412 368 411 498 626 714 932 902 626
0 0 0 0 0 0 0 0 0 0 0 0 0 0 0 0 210 297 299 241 155 61 89 116 65 479 453 371 665 1338 1041 1062 926 842 837 561 197 219 211 240 524 713 634 738 794 1001 1281 1163 789
0 0 0 0 0 0 0 0 0 0 0 0 0 0 0 0 0 70 258 261 267 312 231 18 47 217 466 192 577 871 550 475 363 283 478 502 288 319 185 310 561 927 906 1041 1185 1318 1328 1181 692
0 0 0 0 0 0 0 0 0 0 0 0 0 0 0 0 0 0 0 31 201 285 287 186 40 83 242 207 242 658 936 826 824 545 984 824 413 428 395 312 440 468 806 473 753 932 1204 1045 916
0 0 0 0 0 0 0 0 0 0 0 0 0 0 0 0 0 0 0 0 0 0 74 311 214 80 257 253 182 254 497 719 550 530 934 799 769 513 436 354 283 605 446 605 799 929 1231 1412 1271
0 0 0 0 0 0 0 0 0 0 0 0 0 0 0 0 0 0 0 0 0 0 0 12 352 509 482 450 204 314 375 427 612 429 681 631 378 600 467 475 326 455 693 813 772 994 1250 1399 1462
0 0 0 0 0 0 0 0 0 0 0 0 0 0 0 0 0 0 0 0 0 0 0 0 11 928 487 470 571 403 459 373 409 395 512 722 446 704 485 544 520 649 562 506 533 828 1265 1783 1438
0 0 0 0 0 0 0 0 0 0 0 0 0 0 0 0 0 0 0 0 0 0 0 9 13 17 858 888 786 531 358 326 362 372 434 516 619 575 512 384 498 499 573 572 549 735 1157 1320 1482
0 0 0 0 0 0 0 0 0 0 0 0 0 0 0 0 0 0 0 0 0 0 0 6 0 0 241 774 867 550 339 309 372 452 444 553 609 599 544 445 414 500 501 516 436 382 1284 1539 1478
0 0 0 0 0 0 0 0 0 0 0 0 0 0 0 0 0 0 0 0 0 0 0 0 0 0 74 692 533 690 541 394 464 550 525 610 631 585 620 495 594 399 360 517 424 612 1270 1440 1524
0 0 0 0 0 0 0 0 0 0 0 0 0 0 0 0 0 0 0 0 0 0 0 0 0 0 14 171 579 550 640 650 670 688 691 732 798 739 747 625 604 580 573 442 490 1061 1085 1077 1117
0 0 0 0 0 0 0 0 0 0 0 0 0 0 0 0 0 0 0 0 0 0 0 0 0 0 0 84 309 553 707 823 808 844 914 966 1028 890 794 759 708 708 791 621 944 1185 1231 996 255
0 0 0 0 0 0 0 0 0 0 0 0 0 0 0 0 0 0 0 0 0 0 0 7 0 0 0 79 593 758 885 568 573 965 1102 1142 1099 846 1047 975 563 355 488 1102 1196 1079 986 992 469
0 0 0 0 0 0 0 0 0 0 0 0 0 0 0 0 0 0 0 0 0 0 0 0 0 0 17 328 653 802 727 671 836 1083 1156 912 1117 1125 1088 780 545 847 1243 1237 1174 1097 996 331 7
1 0 0 0 0 0 0 0 0 0 0 0 0 0 0 0 0 0 0 0 0 0 0 0 0 70 165 540 778 1001 1138 1145 1160 1157 1327 1295 1335 1229 837 655 1088 1307 1248 1271 1055 556 458 154 235
0 0 0 0 0 0 0 0 0 0 0 0 0 0 0 0 0 0 0 0 0 0 0 0 190 517 471 614 911 1150 1224 1170 1204 1213 1484 1499 1494 1218 754 1171 1203 1150 1042 1056 1134 543 2 79 554
0 0 0 0 0 0 0 0 0 0 0 0 0 0 0 0 0 0 0 0 0 0 0 36 703 959 739 851 1011 1237 1239 1045 1264 1414 1469 1383 1277 1149 867 730 917 1126 984 977 901 763 568 300 458
0 6 0 0 0 0 0 0 0 0 0 0 0 0 0 0 0 0 0 0 0 0 0 452 1020 1067 960 904 895 1112 1152 1341 1478 1396 1105 939 848 1037 1051 1036 1141 989 887 720 576 545 516 512 428
0 0 1 0 0 0 0 0 0 0 0 0 0 0 0 0 0 0 0 0 0 0 97 718 1188 1159 965 799 707 763 898 910 962 903 843 837 812 891 983 969 927 732 558 473 488 449 424 433 470
0 0 0 0 0 0 0 0 0 0 0 0 0 0 0 0 0 0 0 0 0 55 312 1015 1252 1096 919 777 648 685 661 682 652 748 805 735 821 822 835 843 808 598 472 471 505 434 524 605 576
18 0 0 0 0 0 0 0 0 0 0 0 0 0 0 0 0 0 0 77 102 479 1003 1206 1151 993 720 670 680 565 531 570 583 618 679 691 710 642 742 677 674 598 460 563 732 605 618 667 516
43 49 13 6 0 0 0 0 0 0 0 0 0 0 0 0 0 100 41 33 442 937 1106 1091 898 669 583 503 402 442 463 518 610 663 585 612 612 592 531 411 334 452 615 787 854 727 577 547 214
1 25 18 51 0 0 0 0 0 0 0 0 0 0 0 0 4 86 36 91 610 1103 955 866 701 605 514 427 447 476 459 472 575 533 485 360 277 194 188 250 359 491 606 718 681 653 483 379 16